CAPE
891 888 884 867 899 860 801 740 885 829 705 734 784 650 488 419 400 446 440 121 105 0 138 358 506 461 374 461 509 451 429 547 594 620 648 724 856 1201 1305 1069 1021 972 744 1095 1001 651 462 232 768 901 829 706 348 243 204 159 134 108 80 49 33 24 16 19 9 0 0 0 2 3 3 2 2 1 2 4 3 2 1 1 1 1 2 1 1
715 685 685 724 804 940 901 774 681 835 748 729 668 586 421 335 7 0 2 0 0 50 91 327 416 458 434 483 469 454 429 508 554 601 672 754 923 1111 1271 1231 1033 1049 942 684 604 697 609 410 355 868 868 601 391 280 271 238 204 206 177 172 76 26 13 6 7 11 0 1 1 0 0 2 2 2 2 1 2 2 2 1 0 0 0 1 2
732 624 469 503 606 606 786 767 764 591 650 587 449 67 22 19 51 10 1 0 0 2 31 283 301 335 389 348 355 421 377 436 538 623 751 873 922 982 1210 1235 1306 1260 1232 1047 858 657 663 485 262 359 904 742 508 474 376 308 295 267 235 174 171 119 56 10 9 5 3 1 1 1 1 0 0 2 2 2 2 3 2 0 0 0 0 0 1
691 633 504 387 391 552 707 713 613 429 426 265 38 50 111 169 209 100 12 0 0 0 16 234 212 296 315 334 359 300 428 410 526 692 847 928 907 887 877 983 1314 1088 1014 1068 1040 840 659 586 340 369 692 956 786 674 554 470 443 438 321 215 192 152 151 129 30 3 0 0 0 1 0 0 0 0 0 0 0 0 0 0 0 0 0 0 1
838 703 630 474 381 592 723 852 765 654 499 483 399 258 300 158 164 100 20 0 0 9 118 184 26 256 282 296 289 314 390 368 558 684 839 817 791 734 807 922 1056 1293 1211 1228 1161 1145 1387 818 809 676 554 624 1051 936 785 746 770 704 552 309 253 235 166 123 95 34 1 0 1 0 0 0 0 0 0 0 0 0 0 0 0 0 0 0 0
742 584 324 101 56 121 596 987 871 867 735 612 451 200 93 88 84 83 216 3 0 1 10 21 173 218 220 219 410 418 422 358 374 506 621 610 660 673 788 883 968 1031 1208 1453 1471 1539 1379 1528 1350 1265 744 754 896 978 728 897 979 978 739 522 344 305 287 212 139 76 15 4 0 2 1 0 0 0 0 0 0 0 0 0 0 0 0 0 0
831 570 411 76 475 651 884 1260 1199 1047 574 450 430 299 75 76 32 23 8 23 35 72 44 85 98 181 82 145 326 421 385 320 340 335 350 374 506 562 674 813 938 982 1068 1088 1210 1588 1640 1737 1541 1424 1300 870 675 878 506 346 675 1051 1086 913 553 564 473 394 329 173 72 33 0 1 2 1 0 0 0 0 0 0 0 0 0 0 0 0 0
848 791 603 421 574 952 966 958 744 477 343 358 417 369 304 63 84 14 26 54 117 109 111 239 150 169 103 284 491 612 407 419 373 377 284 303 264 250 422 591 750 792 1206 818 1003 1244 1627 1591 1660 1695 1755 1567 1034 921 828 726 754 777 718 869 780 803 640 477 269 256 186 77 9 1 0 1 2 0 0 0 0 0 0 0 0 0 0 0 0
894 854 616 541 918 1069 926 614 544 492 371 356 398 374 346 132 82 60 17 76 237 460 528 391 256 282 412 660 854 768 300 263 270 397 409 213 222 187 135 113 440 1224 734 613 871 1044 1196 1258 1227 1264 1223 1316 1454 1048 1059 722 515 826 791 864 852 853 697 579 477 424 349 294 48 12 1 0 0 1 0 0 0 0 0 0 0 0 0 0 0
1145 1102 1113 1040 1026 932 787 675 594 531 430 432 465 404 360 41 53 26 38 378 591 643 525 315 162 125 536 591 614 522 435 559 443 362 280 346 438 435 412 288 622 616 414 410 663 826 828 774 497 610 820 1116 1153 869 940 970 945 821 946 858 931 897 890 805 706 639 533 430 291 223 128 91 52 0 0 0 0 0 0 1 0 2 0 0 0
1263 1248 1228 1169 1045 900 791 802 664 614 499 505 516 410 396 339 18 32 237 576 644 518 285 461 529 357 353 497 543 576 207 220 290 276 307 435 458 486 20 281 360 438 492 463 397 493 0 376 624 545 951 1084 918 751 820 937 819 932 886 1003 946 940 919 822 724 842 725 656 601 386 294 122 6 192 24 0 0 0 0 0 0 0 0 0 0
1200 1097 1015 1022 973 896 749 705 718 678 639 512 542 447 496 349 17 72 189 500 547 511 581 607 491 430 386 446 352 262 114 209 194 210 213 63 208 240 2 372 373 463 583 594 517 565 590 612 562 611 516 390 332 358 362 391 364 503 744 666 753 732 886 745 748 709 684 702 508 596 572 384 301 203 5 5 2 0 0 0 0 0 0 0 0
1228 1037 912 936 922 885 758 615 656 680 670 528 597 534 478 365 90 40 42 205 381 446 587 444 364 315 358 400 320 322 753 61 180 337 303 276 16 1 0 48 1 314 476 570 592 778 761 566 517 442 401 439 316 192 154 155 160 170 190 622 856 837 589 543 600 670 797 683 696 742 626 477 499 307 300 240 62 16 25 0 0 0 0 0 0
1064 964 988 1083 985 788 490 597 772 835 737 664 727 650 582 509 368 117 401 407 341 400 513 458 309 293 327 326 286 197 4 60 145 232 392 178 52 52 0 0 7 18 125 458 411 608 656 650 632 553 402 365 294 250 185 75 27 0 4 118 537 679 774 768 767 836 612 614 601 530 454 437 366 460 251 381 287 197 115 89 0 0 0 0 0
1006 991 1094 1180 956 634 505 710 866 1092 1062 884 835 781 728 647 582 392 409 585 704 669 455 832 316 282 286 278 278 217 134 0 60 89 247 212 0 0 0 0 64 12 0 324 429 421 508 666 731 529 526 356 217 138 38 23 0 0 0 13 171 542 677 662 831 647 655 670 502 294 438 455 349 518 282 356 406 302 217 142 69 0 0 0 0
1173 1004 974 976 946 736 928 1109 1213 1248 1206 964 831 816 828 761 702 569 515 659 722 697 575 698 100 0 202 286 224 211 147 109 67 3 7 0 0 0 0 3 3 0 0 0 29 378 330 533 565 538 408 248 152 31 11 0 0 0 0 32 48 286 664 790 837 629 563 502 487 392 347 353 295 135 249 297 421 364 253 260 191 172 0 0 0
1072 1003 856 793 592 661 765 988 1152 1268 1187 1027 783 764 946 884 808 622 533 620 693 684 592 594 278 605 238 159 38 147 154 0 0 0 0 0 0 0 80 0 0 0 0 0 0 0 387 429 434 347 207 45 0 0 0 0 0 0 0 54 78 197 387 695 715 434 491 537 496 279 298 320 310 356 274 407 298 261 279 287 287 285 208 101 65
771 740 643 594 604 548 530 654 835 992 1147 1109 868 958 859 876 832 687 594 609 649 654 580 517 515 540 747 400 32 146 66 0 0 0 0 0 0 0 0 0 0 0 0 0 0 266 327 358 195 0 0 0 0 0 0 0 0 0 0 0 42 76 308 462 789 330 526 377 513 446 332 358 380 305 253 235 235 229 238 236 290 354 323 289 148
558 543 594 551 521 501 515 646 756 1041 1141 992 1002 1101 972 942 850 776 597 571 647 650 611 496 552 518 645 711 698 416 0 0 0 0 0 0 0 0 0 0 0 0 0 0 304 319 212 0 0 0 0 0 0 0 0 0 0 0 0 0 0 0 0 143 329 418 400 758 799 562 533 342 152 132 145 234 345 394 342 304 303 326 320 307 298
457 446 514 548 584 626 581 654 680 876 1244 1083 1029 1126 1092 1138 1158 906 701 519 512 607 639 484 507 438 510 390 110 0 0 0 0 0 0 0 0 0 0 0 0 0 0 139 331 162 8 4 0 0 0 0 0 0 0 0 0 0 0 0 0 0 0 0 0 0 86 216 263 102 19 0 0 0 0 0 16 84 168 209 261 193 246 164 89
394 364 440 552 717 778 664 607 475 589 810 1247 1081 1051 957 832 745 661 634 588 490 502 454 442 389 437 416 326 198 80 3 1 0 0 0 0 0 0 0 0 0 0 0 237 363 315 217 21 0 0 0 0 0 0 0 0 0 0 0 0 0 0 0 0 0 0 0 0 0 0 0 0 0 0 0 0 0 0 0 6 42 91 159 216 235
334 383 354 334 213 248 375 456 431 560 652 798 1245 1138 958 737 604 630 536 377 145 478 394 303 277 423 431 414 252 148 11 7 2 0 0 0 1 0 0 0 0 0 56 134 82 0 0 0 0 0 0 0 0 0 0 0 0 0 0 0 0 0 0 0 0 0 0 0 0 0 0 0 0 0 0 0 0 0 0 0 0 0 0 0 15
0 0 0 0 0 0 0 0 50 472 466 440 668 951 995 754 572 572 588 447 435 301 363 390 488 499 425 430 282 179 99 12 2 0 0 0 0 0 0 0 0 0 0 0 0 0 0 0 0 0 0 0 0 0 0 0 0 0 0 0 0 0 0 0 0 0 0 0 0 0 0 0 0 0 0 0 0 0 0 0 0 0 0 0 0
0 0 0 0 0 0 0 0 304 390 426 640 744 752 769 638 555 540 511 531 519 404 336 298 582 562 519 464 304 219 144 8 28 6 0 0 0 0 0 0 0 0 0 0 0 0 0 0 0 0 0 0 0 0 0 0 0 0 0 0 0 0 0 0 0 0 0 0 0 0 0 0 0 0 0 0 0 0 0 0 0 0 0 0 0
0 0 0 0 0 0 0 130 398 456 460 464 531 672 698 656 678 714 788 712 567 397 321 322 457 522 573 544 393 256 193 0 0 10 6 0 0 0 0 0 0 0 0 0 0 0 0 0 0 0 0 0 0 0 0 0 0 0 0 0 0 0 0 0 0 0 0 0 0 0 0 0 0 0 0 0 0 0 0 0 0 0 0 0 0
0 0 0 0 0 0 0 0 0 374 529 558 588 582 656 721 801 764 745 685 575 440 365 341 379 457 553 571 602 370 145 79 0 0 0 0 0 0 0 0 0 0 0 0 0 0 0 0 0 0 0 0 0 0 0 0 0 0 0 0 0 0 0 0 0 0 0 0 0 0 0 0 0 0 0 0 0 0 0 0 0 0 0 0 0
0 0 0 0 0 0 0 0 0 397 552 616 623 587 608 741 831 783 684 506 442 389 393 340 314 431 512 501 573 510 417 265 0 0 0 0 0 0 0 0 0 0 0 0 0 0 0 0 0 0 0 0 0 0 0 0 0 0 0 0 0 0 0 0 0 0 0 0 0 0 0 0 0 0 0 0 0 0 0 0 0 0 0 0 0
0 0 0 0 0 0 0 0 0 386 612 657 677 689 674 670 704 720 564 141 0 0 0 0 51 98 82 0 0 0 0 0 0 0 0 0 0 0 0 0 0 0 0 0 0 0 0 0 0 0 0 0 0 0 0 0 0 0 0 0 0 0 0 0 0 0 0 0 0 0 0 0 0 0 0 0 0 0 0 0 0 0 0 0 0
0 0 0 0 0 0 0 0 0 124 408 514 585 559 535 549 524 466 57 0 0 0 0 0 0 0 0 0 0 0 0 0 0 0 0 0 0 0 0 0 0 0 0 0 0 0 0 0 0 0 0 0 0 0 0 0 0 0 0 0 0 0 0 0 0 0 0 0 0 0 0 0 0 0 0 0 0 0 0 0 0 0 0 0 0
0 0 0 0 0 0 0 0 0 0 0 0 0 0 0 324 352 108 0 0 0 0 0 0 0 0 0 0 0 0 0 0 0 0 0 0 0 0 0 0 0 0 0 0 0 0 0 0 0 0 0 0 0 0 0 0 0 0 0 0 0 0 0 0 0 0 0 0 0 0 0 0 0 0 0 0 0 0 0 0 0 0 0 0 0
0 0 0 0 0 0 0 0 0 0 0 0 0 0 0 0 93 0 0 0 0 0 0 0 0 0 0 0 0 0 0 0 0 0 0 0 0 0 0 0 0 0 0 0 0 0 0 0 0 0 0 0 0 0 0 0 0 0 0 0 0 0 0 0 0 0 0 0 0 0 0 0 0 0 0 0 0 0 0 0 0 0 0 0 0
0 0 0 0 0 0 0 0 0 0 0 0 0 0 0 0 0 0 0 0 0 0 0 0 0 0 0 0 0 0 0 0 0 0 0 0 0 0 0 0 0 0 0 0 0 0 0 0 0 0 0 0 0 0 0 0 0 0 0 0 0 0 0 0 0 0 0 0 0 0 0 0 0 0 0 0 0 0 0 0 0 0 0 0 0
0 0 0 0 0 0 0 0 0 0 0 0 0 0 0 0 0 0 0 0 0 0 0 0 0 0 0 0 0 0 0 0 0 0 0 0 0 0 0 0 0 0 0 0 0 0 0 0 0 0 0 0 0 0 0 0 0 0 0 0 0 0 0 0 0 0 0 0 0 0 0 0 0 0 0 0 0 0 0 0 0 0 0 0 0
0 0 0 0 0 0 0 0 0 0 0 0 0 0 0 0 0 0 0 0 0 0 0 0 0 0 0 0 0 0 0 0 0 0 0 0 0 0 0 0 0 0 0 0 0 0 0 0 0 0 0 0 0 0 0 0 0 0 0 0 0 0 0 0 0 0 0 0 0 0 0 0 0 0 0 0 0 0 0 0 0 0 0 0 0
0 0 0 0 0 0 0 0 0 0 0 0 0 0 0 0 0 0 0 0 0 0 0 0 0 0 0 0 0 0 0 0 0 0 0 0 0 0 0 0 0 0 0 0 0 0 0 0 0 0 0 0 0 0 0 0 0 0 0 0 0 0 0 0 0 0 0 0 0 0 0 0 0 0 0 0 0 0 0 0 0 0 0 0 0
0 0 0 0 0 0 0 0 0 0 0 0 0 0 0 0 0 0 0 0 0 0 0 0 0 0 0 0 0 0 0 0 0 0 0 0 0 0 0 0 0 0 0 0 0 0 0 0 0 0 0 0 0 0 0 0 0 0 0 0 0 0 0 0 0 0 0 0 0 0 0 0 0 0 0 0 0 0 0 0 0 0 0 0 0
0 0 0 0 0 0 0 0 0 0 0 0 0 0 0 0 0 0 0 0 0 0 0 0 0 0 0 0 0 0 0 0 0 0 0 0 0 0 0 0 0 0 0 0 0 0 0 0 0 0 0 0 0 0 0 0 0 0 0 0 0 0 0 0 0 0 0 0 0 0 0 0 0 0 0 0 0 0 0 0 0 0 0 0 0
0 0 0 0 0 0 0 0 0 0 0 0 0 0 0 0 0 0 0 0 0 0 0 0 0 0 0 0 0 0 0 0 0 0 0 0 0 0 0 0 0 0 0 0 0 0 0 0 0 0 0 0 0 0 0 0 0 0 0 0 0 0 0 0 0 0 0 0 0 0 0 0 0 0 0 0 0 0 0 0 0 0 0 0 0
0 0 0 0 0 0 0 0 0 0 0 0 0 0 0 0 0 0 0 0 0 0 0 0 0 0 0 0 0 0 0 0 0 0 0 0 0 0 0 0 0 0 0 0 0 0 0 0 0 0 0 0 0 0 0 0 0 0 0 0 0 0 0 0 0 0 0 0 0 0 0 0 0 0 0 0 0 0 0 0 0 0 0 0 0
0 0 0 0 0 0 0 0 0 0 0 0 0 0 0 0 0 0 0 0 0 0 0 0 0 0 0 0 0 0 0 0 0 0 0 0 0 0 0 0 0 0 0 0 0 0 0 0 0 0 0 0 0 0 0 0 0 0 0 0 0 0 0 0 0 0 0 0 0 0 0 0 0 0 0 0 0 0 0 0 0 0 0 0 0
0 0 0 0 0 0 0 0 0 0 0 0 0 0 0 0 0 0 0 0 0 0 0 0 0 0 0 0 0 0 0 0 0 0 0 0 0 0 0 0 0 0 0 0 0 0 0 0 0 0 0 0 0 0 0 0 0 0 0 0 0 0 0 0 0 0 0 0 0 0 0 0 0 0 0 0 0 0 0 0 0 0 0 0 0
0 0 0 0 0 0 0 0 0 0 0 0 0 0 0 0 0 0 0 0 0 0 0 0 0 0 0 0 0 1 8 2 0 0 0 0 0 0 0 0 0 0 0 0 0 0 0 0 0 0 0 0 0 0 0 0 0 0 0 0 0 0 0 0 0 0 0 0 0 0 0 0 0 0 0 0 0 0 0 0 0 0 0 0 0
0 0 0 0 0 0 0 0 0 0 0 0 0 0 0 0 0 0 0 0 0 0 0 0 0 0 0 0 0 0 0 0 0 0 0 0 0 0 0 0 0 0 0 0 0 0 0 0 0 0 0 0 0 0 0 0 0 0 0 0 0 0 0 0 0 0 0 0 0 0 0 0 0 0 0 0 0 0 0 0 0 0 0 0 0
491 173 0 0 148 0 0 0 0 0 0 0 0 0 0 0 0 0 0 0 0 0 0 0 0 0 0 0 0 0 0 0 0 0 0 0 0 0 0 0 0 0 0 0 0 0 0 0 0 0 0 0 0 0 0 0 0 0 0 0 0 0 0 0 0 0 0 0 0 0 0 0 0 0 0 0 0 0 0 0 0 0 0 0 0
558 599 619 544 96 229 137 0 0 0 0 0 0 0 0 0 0 0 0 0 0 0 0 0 0 0 0 0 0 0 0 0 0 0 0 0 0 0 0 0 0 0 0 0 0 0 0 0 0 0 1 0 0 0 0 0 0 0 0 0 0 0 0 0 0 0 0 0 0 0 0 0 0 0 0 0 0 0 0 0 0 0 0 0 0
560 559 563 569 586 519 285 409 344 235 0 0 0 0 0 0 0 0 2 3 1 2 2 251 332 276 0 238 0 0 0 0 0 0 0 0 0 0 0 0 0 0 0 0 0 0 0 0 0 4 4 0 0 0 0 0 0 0 0 0 0 0 0 0 0 0 0 0 0 0 0 0 0 0 0 0 0 0 0 0 0 0 0 0 0
511 462 484 497 490 437 463 408 440 459 519 484 431 372 68 0 0 0 0 0 0 0 0 278 392 413 385 404 418 403 250 117 292 218 257 171 164 164 109 0 0 0 0 0 0 0 0 0 0 1 3 0 4 0 0 0 0 0 0 0 0 0 0 0 0 0 0 0 0 0 0 0 0 0 0 0 0 0 0 0 0 0 0 0 0
371 437 434 312 205 339 476 429 536 585 545 524 552 564 543 504 388 196 41 0 0 0 0 340 462 483 480 434 412 423 422 389 239 230 0 13 0 0 0 0 0 0 0 0 0 0 0 0 0 2 0 2 0 0 0 0 0 0 0 0 0 0 0 0 0 0 0 0 0 0 0 0 0 0 0 0 0 0 0 0 0 0 0 0 0
0 0 0 0 0 0 0 104 477 537 602 624 631 622 588 594 577 542 425 195 269 565 624 616 612 605 596 552 484 372 372 469 203 0 12 8 2 157 21 75 77 1 0 0 0 0 0 0 0 0 0 0 0 0 0 0 0 0 0 0 0 0 0 0 0 0 0 0 0 0 0 0 0 0 0 0 0 0 0 0 0 0 0 0 0
0 0 0 0 0 0 0 0 0 68 536 598 615 634 633 637 611 647 613 322 295 445 697 806 837 829 811 758 609 469 0 252 0 0 0 1 1 7 7 8 2 0 0 0 0 0 0 4 2 0 0 0 0 0 0 0 0 0 0 0 0 0 0 0 0 0 0 0 0 0 0 0 0 0 0 0 0 0 0 0 0 0 0 0 0
0 0 0 0 0 0 0 0 0 0 0 342 643 667 660 641 609 579 585 589 601 597 545 573 683 753 783 791 739 639 550 438 44 0 0 0 0 10 14 8 0 0 0 0 0 0 0 3 12 9 0 0 0 0 0 0 0 0 0 0 0 0 0 0 0 0 0 0 0 0 0 0 0 0 0 0 0 0 0 0 0 0 0 0 0
Wind_Speed
18 15 15 16 15 15 16 16 17 16 17 17 14 13 14 15 16 15 14 14 14 nan 13 10 10 9 8 9 10 12 14 15 17 18 18 18 17 18 20 19 18 19 25 25 24 22 22 21 21 20 20 21 21 21 21 21 21 21 nan nan nan nan nan nan nan nan nan nan nan nan nan nan nan nan nan nan nan nan nan nan nan nan nan nan nan
14 13 16 16 16 16 16 16 17 16 17 16 13 13 13 15 nan nan nan nan nan nan nan 9 10 12 10 10 10 11 12 14 16 16 15 15 14 15 18 20 21 19 23 23 24 24 23 22 21 21 22 22 21 20 20 20 20 20 21 21 nan nan nan nan nan nan nan nan nan nan nan nan nan nan nan nan nan nan nan nan nan nan nan nan nan
12 14 16 17 16 16 15 15 16 15 15 15 13 nan nan nan nan nan nan nan nan nan nan 10 9 9 10 9 9 10 11 12 14 13 12 11 10 12 15 20 21 23 22 22 23 23 24 22 21 21 21 21 20 20 20 19 19 19 21 21 21 21 nan nan nan nan nan nan nan nan nan nan nan nan nan nan nan nan nan nan nan nan nan nan nan
13 15 17 17 16 15 14 15 14 14 14 13 nan nan 12 13 15 13 nan nan nan nan nan 10 8 8 8 7 9 9 9 10 11 11 9 7 8 11 15 16 18 19 20 21 21 20 22 21 20 20 20 19 18 19 19 18 17 19 20 21 21 22 22 22 nan nan nan nan nan nan nan nan nan nan nan nan nan nan nan nan nan nan nan nan nan
14 16 17 17 15 14 15 15 15 15 14 13 12 12 11 12 13 nan nan nan nan nan 9 10 nan 7 5 5 8 10 9 10 10 9 6 5 9 15 16 12 11 14 16 17 18 18 19 18 20 20 21 19 18 18 18 18 16 18 19 20 21 21 22 23 nan nan nan nan nan nan nan nan nan nan nan nan nan nan nan nan nan nan nan nan nan
14 16 17 16 nan 14 15 15 15 15 14 13 14 11 nan nan nan nan 11 nan nan nan nan nan 4 5 4 3 7 10 9 10 11 4 1 9 15 14 10 9 10 11 11 14 14 15 18 21 21 21 20 20 19 18 17 16 17 17 18 19 20 21 22 23 25 nan nan nan nan nan nan nan nan nan nan nan nan nan nan nan nan nan nan nan nan
14 15 16 nan 15 15 14 14 15 14 15 13 13 12 nan nan nan nan nan nan nan nan nan nan nan 4 nan 3 6 8 9 13 7 2 2 11 12 8 7 9 11 10 11 11 13 14 15 17 18 18 19 17 16 18 17 19 19 19 17 19 20 20 22 24 25 27 nan nan nan nan nan nan nan nan nan nan nan nan nan nan nan nan nan nan nan
16 16 17 16 16 15 13 13 14 14 14 12 10 10 9 nan nan nan nan nan 11 8 6 7 4 4 4 6 6 7 11 11 3 2 7 9 8 5 5 6 8 7 10 11 11 11 14 16 17 18 19 19 18 16 17 20 24 26 24 20 18 21 22 24 25 25 27 nan nan nan nan nan nan nan nan nan nan nan nan nan nan nan nan nan nan
16 15 16 15 15 15 12 13 12 11 11 10 8 7 9 9 nan nan nan nan 10 8 6 6 6 5 6 6 7 9 12 4 2 3 6 6 5 6 4 4 5 8 7 8 9 8 10 13 12 13 13 14 15 17 16 23 18 20 21 23 23 20 21 22 22 23 25 27 nan nan nan nan nan nan nan nan nan nan nan nan nan nan nan nan nan
14 12 13 13 14 13 12 12 12 11 11 9 8 8 8 nan nan nan nan 11 10 7 6 6 7 7 6 7 7 8 9 4 0 3 3 4 5 5 3 2 5 7 7 7 6 6 6 8 9 10 9 9 12 12 15 14 19 18 20 24 25 24 24 21 19 21 23 24 25 27 28 nan nan nan nan nan nan nan nan nan nan nan nan nan nan
11 11 12 12 13 13 13 12 12 11 10 9 9 9 9 8 nan nan 10 11 10 10 9 8 9 8 7 7 6 7 8 5 4 5 3 2 3 4 nan 3 4 6 7 6 5 5 nan 6 7 8 9 16 17 19 19 20 19 18 21 24 25 22 27 22 18 17 17 19 22 25 27 27 nan 27 nan nan nan nan nan nan nan nan nan nan nan
10 11 12 12 12 12 12 12 12 11 11 10 9 9 9 9 nan nan 12 13 14 14 12 12 11 11 9 9 7 7 10 5 2 1 3 nan 3 6 nan 5 6 6 7 7 7 7 7 7 9 10 11 16 20 19 19 18 17 16 18 22 23 24 22 20 18 19 18 18 15 19 26 27 27 27 nan nan nan nan nan nan nan nan nan nan nan
10 12 13 13 12 12 12 12 12 10 10 9 8 9 10 10 nan nan nan 12 11 11 11 12 14 11 10 10 9 6 8 nan 6 2 2 4 nan nan nan nan nan 8 8 10 10 9 10 10 11 12 13 12 13 17 19 18 17 16 15 17 20 23 22 20 18 17 18 19 18 21 28 28 26 26 27 27 nan nan nan nan nan nan nan nan nan
11 12 14 14 14 14 13 13 12 10 10 10 9 9 11 11 10 13 11 10 10 9 7 11 11 8 10 10 9 9 nan nan 6 5 6 6 nan nan nan nan nan nan 11 13 12 13 13 13 14 14 14 13 13 13 13 nan nan nan nan 14 15 18 21 21 16 16 14 13 17 25 32 37 35 28 25 23 24 24 26 nan nan nan nan nan nan
13 14 14 14 16 16 14 14 13 12 12 11 11 11 11 11 10 12 12 11 11 10 9 10 8 8 10 13 9 11 10 nan nan nan 7 8 nan nan nan nan nan nan nan 15 15 14 14 14 15 16 15 13 14 14 nan nan nan nan nan nan 14 14 17 19 21 21 18 15 16 22 26 23 28 32 28 21 20 22 25 25 nan nan nan nan nan
14 15 15 13 14 16 15 15 15 13 12 11 10 11 12 12 13 12 12 12 11 10 11 11 10 nan 11 10 9 12 12 9 nan nan nan nan nan nan nan nan nan nan nan nan nan 16 16 16 17 17 16 15 15 nan nan nan nan nan nan nan nan 13 15 18 20 22 24 25 24 24 23 24 28 27 26 23 21 22 23 22 21 23 nan nan nan
14 15 15 13 13 15 15 14 15 14 12 12 12 12 12 12 13 12 11 13 11 11 11 13 13 10 11 13 nan 12 8 nan nan nan nan nan nan nan nan nan nan nan nan nan nan nan 17 18 18 18 18 nan nan nan nan nan nan nan nan nan nan 17 16 19 20 23 24 25 26 26 25 24 23 24 27 22 20 17 18 20 18 17 19 21 nan
14 15 14 13 12 13 13 13 13 12 12 12 15 16 13 13 12 13 13 12 13 13 12 13 12 13 12 11 nan 11 nan nan nan nan nan nan nan nan nan nan nan nan nan nan nan 18 17 18 18 nan nan nan nan nan nan nan nan nan nan nan nan nan 19 19 22 23 24 23 23 25 30 32 33 33 32 31 28 23 21 18 15 15 13 15 18
13 13 13 12 11 11 12 12 11 11 11 13 14 14 13 13 14 14 13 14 13 12 11 11 13 13 14 14 13 13 nan nan nan nan nan nan nan nan nan nan nan nan nan nan 19 20 19 nan nan nan nan nan nan nan nan nan nan nan nan nan nan nan nan 22 23 28 27 26 28 29 31 33 32 32 32 32 33 35 33 25 20 20 22 24 22
12 12 12 12 11 11 11 12 12 10 9 10 12 12 13 14 14 14 14 13 13 13 11 12 13 11 14 14 16 nan nan nan nan nan nan nan nan nan nan nan nan nan nan 19 19 20 nan nan nan nan nan nan nan nan nan nan nan nan nan nan nan nan nan nan nan nan nan 33 33 34 nan nan nan nan nan nan nan nan 34 36 36 34 31 26 nan
10 11 10 10 10 9 10 11 11 10 10 11 11 12 13 15 16 15 13 13 14 14 15 12 14 14 16 15 16 nan nan nan nan nan nan nan nan nan nan nan nan nan nan 18 19 18 18 nan nan nan nan nan nan nan nan nan nan nan nan nan nan nan nan nan nan nan nan nan nan nan nan nan nan nan nan nan nan nan nan nan nan nan 38 39 38
10 10 12 10 10 9 8 8 9 11 12 12 13 14 15 15 14 14 15 15 14 15 14 14 14 15 15 15 15 15 nan nan nan nan nan nan nan nan nan nan nan nan nan 19 nan nan nan nan nan nan nan nan nan nan nan nan nan nan nan nan nan nan nan nan nan nan nan nan nan nan nan nan nan nan nan nan nan nan nan nan nan nan nan nan nan
nan nan nan nan nan nan nan nan nan 10 12 13 14 15 16 17 16 17 16 15 13 14 15 14 15 15 14 15 14 15 nan nan nan nan nan nan nan nan nan nan nan nan nan nan nan nan nan nan nan nan nan nan nan nan nan nan nan nan nan nan nan nan nan nan nan nan nan nan nan nan nan nan nan nan nan nan nan nan nan nan nan nan nan nan nan
nan nan nan nan nan nan nan nan 10 10 10 11 13 15 15 17 18 18 17 15 14 14 14 15 14 14 13 13 13 15 15 nan nan nan nan nan nan nan nan nan nan nan nan nan nan nan nan nan nan nan nan nan nan nan nan nan nan nan nan nan nan nan nan nan nan nan nan nan nan nan nan nan nan nan nan nan nan nan nan nan nan nan nan nan nan
nan nan nan nan nan nan nan 14 12 11 11 12 12 12 14 15 17 18 18 18 16 16 14 14 15 14 12 13 14 15 13 nan nan nan nan nan nan nan nan nan nan nan nan nan nan nan nan nan nan nan nan nan nan nan nan nan nan nan nan nan nan nan nan nan nan nan nan nan nan nan nan nan nan nan nan nan nan nan nan nan nan nan nan nan nan
nan nan nan nan nan nan nan nan nan 15 15 15 15 13 14 16 16 16 16 16 17 16 15 15 14 14 14 14 12 11 11 nan nan nan nan nan nan nan nan nan nan nan nan nan nan nan nan nan nan nan nan nan nan nan nan nan nan nan nan nan nan nan nan nan nan nan nan nan nan nan nan nan nan nan nan nan nan nan nan nan nan nan nan nan nan
nan nan nan nan nan nan nan nan nan 19 19 19 18 18 17 17 16 15 15 16 17 17 16 17 16 15 14 13 11 9 9 11 nan nan nan nan nan nan nan nan nan nan nan nan nan nan nan nan nan nan nan nan nan nan nan nan nan nan nan nan nan nan nan nan nan nan nan nan nan nan nan nan nan nan nan nan nan nan nan nan nan nan nan nan nan
nan nan nan nan nan nan nan nan nan 20 20 20 20 21 20 21 18 17 17 16 nan nan nan nan nan nan nan nan nan nan nan nan nan nan nan nan nan nan nan nan nan nan nan nan nan nan nan nan nan nan nan nan nan nan nan nan nan nan nan nan nan nan nan nan nan nan nan nan nan nan nan nan nan nan nan nan nan nan nan nan nan nan nan nan nan
nan nan nan nan nan nan nan nan nan 17 18 19 21 21 22 22 21 19 nan nan nan nan nan nan nan nan nan nan nan nan nan nan nan nan nan nan nan nan nan nan nan nan nan nan nan nan nan nan nan nan nan nan nan nan nan nan nan nan nan nan nan nan nan nan nan nan nan nan nan nan nan nan nan nan nan nan nan nan nan nan nan nan nan nan nan
nan nan nan nan nan nan nan nan nan nan nan nan nan nan nan 22 21 20 nan nan nan nan nan nan nan nan nan nan nan nan nan nan nan nan nan nan nan nan nan nan nan nan nan nan nan nan nan nan nan nan nan nan nan nan nan nan nan nan nan nan nan nan nan nan nan nan nan nan nan nan nan nan nan nan nan nan nan nan nan nan nan nan nan nan nan
nan nan nan nan nan nan nan nan nan nan nan nan nan nan nan nan nan nan nan nan nan nan nan nan nan nan nan nan nan nan nan nan nan nan nan nan nan nan nan nan nan nan nan nan nan nan nan nan nan nan nan nan nan nan nan nan nan nan nan nan nan nan nan nan nan nan nan nan nan nan nan nan nan nan nan nan nan nan nan nan nan nan nan nan nan
nan nan nan nan nan nan nan nan nan nan nan nan nan nan nan nan nan nan nan nan nan nan nan nan nan nan nan nan nan nan nan nan nan nan nan nan nan nan nan nan nan nan nan nan nan nan nan nan nan nan nan nan nan nan nan nan nan nan nan nan nan nan nan nan nan nan nan nan nan nan nan nan nan nan nan nan nan nan nan nan nan nan nan nan nan
nan nan nan nan nan nan nan nan nan nan nan nan nan nan nan nan nan nan nan nan nan nan nan nan nan nan nan nan nan nan nan nan nan nan nan nan nan nan nan nan nan nan nan nan nan nan nan nan nan nan nan nan nan nan nan nan nan nan nan nan nan nan nan nan nan nan nan nan nan nan nan nan nan nan nan nan nan nan nan nan nan nan nan nan nan
nan nan nan nan nan nan nan nan nan nan nan nan nan nan nan nan nan nan nan nan nan nan nan nan nan nan nan nan nan nan nan nan nan nan nan nan nan nan nan nan nan nan nan nan nan nan nan nan nan nan nan nan nan nan nan nan nan nan nan nan nan nan nan nan nan nan nan nan nan nan nan nan nan nan nan nan nan nan nan nan nan nan nan nan nan
nan nan nan nan nan nan nan nan nan nan nan nan nan nan nan nan nan nan nan nan nan nan nan nan nan nan nan nan nan nan nan nan nan nan nan nan nan nan nan nan nan nan nan nan nan nan nan nan nan nan nan nan nan nan nan nan nan nan nan nan nan nan nan nan nan nan nan nan nan nan nan nan nan nan nan nan nan nan nan nan nan nan nan nan nan
nan nan nan nan nan nan nan nan nan nan nan nan nan nan nan nan nan nan nan nan nan nan nan nan nan nan nan nan nan nan nan nan nan nan nan nan nan nan nan nan nan nan nan nan nan nan nan nan nan nan nan nan nan nan nan nan nan nan nan nan nan nan nan nan nan nan nan nan nan nan nan nan nan nan nan nan nan nan nan nan nan nan nan nan nan
nan nan nan nan nan nan nan nan nan nan nan nan nan nan nan nan nan nan nan nan nan nan nan nan nan nan nan nan nan nan nan nan nan nan nan nan nan nan nan nan nan nan nan nan nan nan nan nan nan nan nan nan nan nan nan nan nan nan nan nan nan nan nan nan nan nan nan nan nan nan nan nan nan nan nan nan nan nan nan nan nan nan nan nan nan
nan nan nan nan nan nan nan nan nan nan nan nan nan nan nan nan nan nan nan nan nan nan nan nan nan nan nan nan nan nan nan nan nan nan nan nan nan nan nan nan nan nan nan nan nan nan nan nan nan nan nan nan nan nan nan nan nan nan nan nan nan nan nan nan nan nan nan nan nan nan nan nan nan nan nan nan nan nan nan nan nan nan nan nan nan
nan nan nan nan nan nan nan nan nan nan nan nan nan nan nan nan nan nan nan nan nan nan nan nan nan nan nan nan nan nan nan nan nan nan nan nan nan nan nan nan nan nan nan nan nan nan nan nan nan nan nan nan nan nan nan nan nan nan nan nan nan nan nan nan nan nan nan nan nan nan nan nan nan nan nan nan nan nan nan nan nan nan nan nan nan
nan nan nan nan nan nan nan nan nan nan nan nan nan nan nan nan nan nan nan nan nan nan nan nan nan nan nan nan nan nan nan nan nan nan nan nan nan nan nan nan nan nan nan nan nan nan nan nan nan nan nan nan nan nan nan nan nan nan nan nan nan nan nan nan nan nan nan nan nan nan nan nan nan nan nan nan nan nan nan nan nan nan nan nan nan
nan nan nan nan nan nan nan nan nan nan nan nan nan nan nan nan nan nan nan nan nan nan nan nan nan nan nan nan nan nan nan nan nan nan nan nan nan nan nan nan nan nan nan nan nan nan nan nan nan nan nan nan nan nan nan nan nan nan nan nan nan nan nan nan nan nan nan nan nan nan nan nan nan nan nan nan nan nan nan nan nan nan nan nan nan
nan nan nan nan nan nan nan nan nan nan nan nan nan nan nan nan nan nan nan nan nan nan nan nan nan nan nan nan nan nan nan nan nan nan nan nan nan nan nan nan nan nan nan nan nan nan nan nan nan nan nan nan nan nan nan nan nan nan nan nan nan nan nan nan nan nan nan nan nan nan nan nan nan nan nan nan nan nan nan nan nan nan nan nan nan
nan nan nan nan nan nan nan nan nan nan nan nan nan nan nan nan nan nan nan nan nan nan nan nan nan nan nan nan nan nan nan nan nan nan nan nan nan nan nan nan nan nan nan nan nan nan nan nan nan nan nan nan nan nan nan nan nan nan nan nan nan nan nan nan nan nan nan nan nan nan nan nan nan nan nan nan nan nan nan nan nan nan nan nan nan
28 29 nan nan 32 nan nan nan nan nan nan nan nan nan nan nan nan nan nan nan nan nan nan nan nan nan nan nan nan nan nan nan nan nan nan nan nan nan nan nan nan nan nan nan nan nan nan nan nan nan nan nan nan nan nan nan nan nan nan nan nan nan nan nan nan nan nan nan nan nan nan nan nan nan nan nan nan nan nan nan nan nan nan nan nan
30 32 32 33 nan 31 30 nan nan nan nan nan nan nan nan nan nan nan nan nan nan nan nan nan nan nan nan nan nan nan nan nan nan nan nan nan nan nan nan nan nan nan nan nan nan nan nan nan nan nan nan nan nan nan nan nan nan nan nan nan nan nan nan nan nan nan nan nan nan nan nan nan nan nan nan nan nan nan nan nan nan nan nan nan nan
32 32 32 32 31 30 30 29 27 27 nan nan nan nan nan nan nan nan nan nan nan nan nan 28 29 29 nan 29 nan nan nan nan nan nan nan nan nan nan nan nan nan nan nan nan nan nan nan nan nan nan nan nan nan nan nan nan nan nan nan nan nan nan nan nan nan nan nan nan nan nan nan nan nan nan nan nan nan nan nan nan nan nan nan nan nan
33 33 33 32 30 30 30 31 31 30 30 29 29 27 nan nan nan nan nan nan nan nan nan 30 32 33 33 34 35 34 35 35 34 34 33 34 37 38 38 nan nan nan nan nan nan nan nan nan nan nan nan nan nan nan nan nan nan nan nan nan nan nan nan nan nan nan nan nan nan nan nan nan nan nan nan nan nan nan nan nan nan nan nan nan nan
36 36 35 34 32 32 32 32 32 32 32 32 31 31 33 31 32 35 nan nan nan nan nan 31 32 34 36 38 39 40 40 39 36 37 nan nan nan nan nan nan nan nan nan nan nan nan nan nan nan nan nan nan nan nan nan nan nan nan nan nan nan nan nan nan nan nan nan nan nan nan nan nan nan nan nan nan nan nan nan nan nan nan nan nan nan
nan nan nan nan nan nan nan 37 37 36 35 33 33 33 36 40 43 41 39 38 38 35 32 31 32 34 36 37 37 40 44 42 44 nan nan nan nan 43 nan nan nan nan nan nan nan nan nan nan nan nan nan nan nan nan nan nan nan nan nan nan nan nan nan nan nan nan nan nan nan nan nan nan nan nan nan nan nan nan nan nan nan nan nan nan nan
nan nan nan nan nan nan nan nan nan nan 39 37 35 36 37 42 45 44 41 40 38 39 37 35 35 36 38 39 39 38 nan 44 nan nan nan nan nan nan nan nan nan nan nan nan nan nan nan nan nan nan nan nan nan nan nan nan nan nan nan nan nan nan nan nan nan nan nan nan nan nan nan nan nan nan nan nan nan nan nan nan nan nan nan nan nan
nan nan nan nan nan nan nan nan nan nan nan 40 39 39 39 40 45 45 44 42 41 41 41 40 41 43 43 43 41 41 43 45 nan nan nan nan nan nan nan nan nan nan nan nan nan nan nan nan nan nan nan nan nan nan nan nan nan nan nan nan nan nan nan nan nan nan nan nan nan nan nan nan nan nan nan nan nan nan nan nan nan nan nan nan nan
Wind_Direction
245 239 241 241 243 251 258 265 269 268 267 259 259 255 247 249 250 249 255 259 248 nan 231 212 222 224 245 247 243 243 243 241 240 239 239 242 245 253 259 261 261 264 274 276 274 270 265 260 267 270 269 265 263 262 263 263 264 265 nan nan nan nan nan nan nan nan nan nan nan nan nan nan nan nan nan nan nan nan nan nan nan nan nan nan nan
239 239 243 241 247 252 260 267 272 266 261 260 262 260 256 246 nan nan nan nan nan nan nan 221 215 207 206 242 237 242 244 246 246 245 244 245 248 253 259 256 257 266 274 279 276 274 272 267 267 274 274 270 268 270 267 267 268 268 269 267 nan nan nan nan nan nan nan nan nan nan nan nan nan nan nan nan nan nan nan nan nan nan nan nan nan
239 245 239 244 254 260 264 268 267 263 262 265 263 nan nan nan nan nan nan nan nan nan nan 221 200 206 202 229 239 247 250 251 251 250 249 248 253 256 257 258 257 258 264 270 277 278 277 274 271 277 279 277 273 272 270 268 267 267 266 267 269 267 nan nan nan nan nan nan nan nan nan nan nan nan nan nan nan nan nan nan nan nan nan nan nan
243 245 246 253 262 268 268 269 268 263 263 266 nan nan 260 247 242 243 nan nan nan nan nan 232 220 215 199 220 242 254 259 260 257 252 249 254 262 258 250 247 255 260 261 259 259 269 280 277 277 274 278 279 274 273 273 271 268 266 265 266 267 267 267 266 nan nan nan nan nan nan nan nan nan nan nan nan nan nan nan nan nan nan nan nan nan
247 248 251 260 265 264 262 265 266 264 263 262 258 257 256 252 243 nan nan nan nan nan 231 209 nan 243 220 214 258 266 267 267 256 236 240 260 257 246 242 242 248 267 269 265 264 255 259 285 283 281 275 276 278 275 275 274 274 267 267 268 268 267 266 263 nan nan nan nan nan nan nan nan nan nan nan nan nan nan nan nan nan nan nan nan nan
254 249 256 261 nan 257 258 262 263 263 261 257 257 253 nan nan nan nan 228 nan nan nan nan nan 210 252 239 237 254 268 274 262 246 235 241 249 241 245 252 252 254 260 264 262 261 258 259 258 263 260 266 273 276 277 275 280 278 276 273 271 271 269 267 265 259 nan nan nan nan nan nan nan nan nan nan nan nan nan nan nan nan nan nan nan nan
257 262 264 nan 261 258 259 263 264 263 261 249 253 247 nan nan nan nan nan nan nan nan nan nan nan 247 nan 266 266 273 270 250 256 45 238 243 245 249 256 256 250 253 261 259 252 253 252 252 252 254 249 253 269 281 276 266 271 274 272 273 272 270 271 268 265 262 nan nan nan nan nan nan nan nan nan nan nan nan nan nan nan nan nan nan nan
265 264 264 262 261 265 268 265 262 259 257 250 250 258 253 nan nan nan nan nan 234 233 244 252 228 236 247 253 251 260 255 259 341 49 231 243 260 268 257 263 258 256 261 253 256 252 251 252 246 244 241 247 249 255 259 252 244 239 242 246 261 271 270 271 271 270 265 nan nan nan nan nan nan nan nan nan nan nan nan nan nan nan nan nan nan
263 258 259 260 263 269 270 269 263 260 257 253 251 256 256 249 nan nan nan nan 229 241 252 261 261 234 227 231 230 247 256 278 338 278 254 275 267 257 253 272 273 267 258 261 258 262 254 248 244 241 236 234 237 247 245 269 268 260 253 246 250 251 258 264 272 271 267 263 nan nan nan nan nan nan nan nan nan nan nan nan nan nan nan nan nan
255 254 257 264 269 270 261 258 257 256 259 257 256 253 248 nan nan nan nan 227 225 244 266 261 252 244 228 227 228 251 284 299 302 253 307 306 305 299 292 288 269 268 270 266 264 267 262 245 235 230 231 230 238 252 265 266 274 270 256 252 249 256 256 256 259 271 270 263 259 264 266 nan nan nan nan nan nan nan nan nan nan nan nan nan nan
258 262 263 262 260 259 258 259 261 261 257 249 252 253 250 239 nan nan 227 219 234 238 256 259 257 255 238 219 232 256 267 293 331 321 352 341 320 299 nan 273 252 257 271 272 271 264 nan 249 246 247 240 245 247 252 256 260 266 261 258 252 245 244 254 250 253 246 254 258 254 259 267 268 nan 268 nan nan nan nan nan nan nan nan nan nan nan
271 269 267 266 264 261 265 267 268 267 263 255 253 264 263 248 nan nan 247 235 231 244 254 258 252 254 252 238 237 258 284 305 289 324 322 nan 290 283 nan 269 257 257 266 273 264 257 261 254 252 250 251 252 250 253 254 256 259 259 255 256 256 253 258 253 255 249 240 246 245 243 254 267 267 269 nan nan nan nan nan nan nan nan nan nan nan
278 276 276 273 268 263 263 263 266 269 269 270 266 263 253 240 nan nan nan 251 236 242 246 254 261 250 245 249 246 245 256 nan 284 326 313 271 nan nan nan nan nan 267 265 263 264 269 271 267 266 261 256 258 258 254 253 253 252 253 256 258 259 262 266 261 259 257 248 243 240 246 241 244 264 265 267 264 nan nan nan nan nan nan nan nan nan
272 272 270 274 271 268 268 268 267 269 261 257 256 253 253 250 245 238 226 251 250 256 257 247 233 264 270 248 236 227 nan nan 268 277 281 266 nan nan nan nan nan nan 273 271 273 276 277 276 271 269 264 266 266 266 266 nan nan nan nan 255 260 262 257 263 262 263 279 274 249 239 238 238 241 253 259 263 268 271 275 nan nan nan nan nan nan
271 265 262 261 266 267 267 268 270 270 264 259 257 253 251 252 240 248 243 229 243 242 241 233 251 237 238 246 233 237 221 nan nan nan 257 267 nan nan nan nan nan nan nan 277 276 274 273 271 272 270 274 273 267 268 nan nan nan nan nan nan 264 260 254 252 252 253 258 273 260 248 236 230 245 246 247 252 258 262 269 274 nan nan nan nan nan
274 272 264 261 268 269 263 265 269 265 268 265 258 254 246 240 236 238 251 249 236 230 224 230 247 nan 235 229 231 249 244 237 nan nan nan nan nan nan nan nan nan nan nan nan nan 266 267 268 271 275 274 268 265 nan nan nan nan nan nan nan nan 249 243 248 246 250 249 246 246 247 254 254 250 250 250 243 242 250 248 254 270 276 nan nan nan
276 274 272 270 260 260 261 260 262 261 258 258 258 258 251 247 251 251 254 261 242 231 221 229 234 226 252 241 nan 233 246 nan nan nan nan nan nan nan nan nan nan nan nan nan nan nan 263 268 273 274 270 nan nan nan nan nan nan nan nan nan nan 251 245 252 254 251 248 248 257 259 257 259 259 254 255 261 263 261 262 254 248 261 280 285 nan
272 271 270 270 263 260 260 265 263 262 264 261 254 255 254 254 258 259 248 237 255 242 233 225 228 223 229 233 nan 256 nan nan nan nan nan nan nan nan nan nan nan nan nan nan nan 258 263 272 272 nan nan nan nan nan nan nan nan nan nan nan nan nan 253 246 253 252 255 257 252 255 258 257 256 255 257 259 261 264 269 275 272 263 258 280 287
274 274 274 269 263 257 259 262 267 268 265 268 265 265 265 262 256 256 254 252 247 251 253 242 228 222 224 228 235 239 nan nan nan nan nan nan nan nan nan nan nan nan nan nan 261 265 267 nan nan nan nan nan nan nan nan nan nan nan nan nan nan nan nan 248 245 260 263 263 262 257 254 256 256 254 253 253 255 257 260 269 272 266 260 257 250
280 275 272 272 265 262 261 265 269 267 262 273 276 272 264 256 259 256 258 260 258 261 254 249 261 237 231 236 239 nan nan nan nan nan nan nan nan nan nan nan nan nan nan 266 266 270 nan nan nan nan nan nan nan nan nan nan nan nan nan nan nan nan nan nan nan nan nan 260 260 262 nan nan nan nan nan nan nan nan 255 256 260 261 262 264 nan
276 274 265 265 263 263 261 262 264 269 264 252 254 269 274 272 270 269 270 257 253 253 258 260 256 259 252 245 246 nan nan nan nan nan nan nan nan nan nan nan nan nan nan 264 268 270 272 nan nan nan nan nan nan nan nan nan nan nan nan nan nan nan nan nan nan nan nan nan nan nan nan nan nan nan nan nan nan nan nan nan nan nan 254 256 257
268 270 264 257 257 257 257 265 266 264 265 265 262 267 272 277 280 277 268 263 259 267 267 263 260 262 266 268 259 254 nan nan nan nan nan nan nan nan nan nan nan nan nan 269 nan nan nan nan nan nan nan nan nan nan nan nan nan nan nan nan nan nan nan nan nan nan nan nan nan nan nan nan nan nan nan nan nan nan nan nan nan nan nan nan nan
nan nan nan nan nan nan nan nan nan 270 262 265 270 273 276 279 275 268 266 269 269 264 259 262 262 269 268 276 277 278 nan nan nan nan nan nan nan nan nan nan nan nan nan nan nan nan nan nan nan nan nan nan nan nan nan nan nan nan nan nan nan nan nan nan nan nan nan nan nan nan nan nan nan nan nan nan nan nan nan nan nan nan nan nan nan
nan nan nan nan nan nan nan nan 258 268 271 271 269 275 277 275 276 277 278 275 269 270 270 272 269 270 268 272 272 263 257 nan nan nan nan nan nan nan nan nan nan nan nan nan nan nan nan nan nan nan nan nan nan nan nan nan nan nan nan nan nan nan nan nan nan nan nan nan nan nan nan nan nan nan nan nan nan nan nan nan nan nan nan nan nan
nan nan nan nan nan nan nan 255 261 269 277 276 276 275 274 274 278 279 284 286 285 279 279 276 277 276 274 260 260 261 258 nan nan nan nan nan nan nan nan nan nan nan nan nan nan nan nan nan nan nan nan nan nan nan nan nan nan nan nan nan nan nan nan nan nan nan nan nan nan nan nan nan nan nan nan nan nan nan nan nan nan nan nan nan nan
nan nan nan nan nan nan nan nan nan 264 268 273 275 271 268 269 271 275 276 277 276 274 270 268 266 261 256 259 251 257 255 nan nan nan nan nan nan nan nan nan nan nan nan nan nan nan nan nan nan nan nan nan nan nan nan nan nan nan nan nan nan nan nan nan nan nan nan nan nan nan nan nan nan nan nan nan nan nan nan nan nan nan nan nan nan
nan nan nan nan nan nan nan nan nan 264 265 266 266 263 262 259 257 260 257 259 263 264 261 265 264 263 260 262 258 255 257 274 nan nan nan nan nan nan nan nan nan nan nan nan nan nan nan nan nan nan nan nan nan nan nan nan nan nan nan nan nan nan nan nan nan nan nan nan nan nan nan nan nan nan nan nan nan nan nan nan nan nan nan nan nan
nan nan nan nan nan nan nan nan nan 263 263 265 264 262 261 261 257 254 251 246 nan nan nan nan nan nan nan nan nan nan nan nan nan nan nan nan nan nan nan nan nan nan nan nan nan nan nan nan nan nan nan nan nan nan nan nan nan nan nan nan nan nan nan nan nan nan nan nan nan nan nan nan nan nan nan nan nan nan nan nan nan nan nan nan nan
nan nan nan nan nan nan nan nan nan 259 257 258 261 261 261 263 264 259 nan nan nan nan nan nan nan nan nan nan nan nan nan nan nan nan nan nan nan nan nan nan nan nan nan nan nan nan nan nan nan nan nan nan nan nan nan nan nan nan nan nan nan nan nan nan nan nan nan nan nan nan nan nan nan nan nan nan nan nan nan nan nan nan nan nan nan
nan nan nan nan nan nan nan nan nan nan nan nan nan nan nan 260 260 258 nan nan nan nan nan nan nan nan nan nan nan nan nan nan nan nan nan nan nan nan nan nan nan nan nan nan nan nan nan nan nan nan nan nan nan nan nan nan nan nan nan nan nan nan nan nan nan nan nan nan nan nan nan nan nan nan nan nan nan nan nan nan nan nan nan nan nan
nan nan nan nan nan nan nan nan nan nan nan nan nan nan nan nan nan nan nan nan nan nan nan nan nan nan nan nan nan nan nan nan nan nan nan nan nan nan nan nan nan nan nan nan nan nan nan nan nan nan nan nan nan nan nan nan nan nan nan nan nan nan nan nan nan nan nan nan nan nan nan nan nan nan nan nan nan nan nan nan nan nan nan nan nan
nan nan nan nan nan nan nan nan nan nan nan nan nan nan nan nan nan nan nan nan nan nan nan nan nan nan nan nan nan nan nan nan nan nan nan nan nan nan nan nan nan nan nan nan nan nan nan nan nan nan nan nan nan nan nan nan nan nan nan nan nan nan nan nan nan nan nan nan nan nan nan nan nan nan nan nan nan nan nan nan nan nan nan nan nan
nan nan nan nan nan nan nan nan nan nan nan nan nan nan nan nan nan nan nan nan nan nan nan nan nan nan nan nan nan nan nan nan nan nan nan nan nan nan nan nan nan nan nan nan nan nan nan nan nan nan nan nan nan nan nan nan nan nan nan nan nan nan nan nan nan nan nan nan nan nan nan nan nan nan nan nan nan nan nan nan nan nan nan nan nan
nan nan nan nan nan nan nan nan nan nan nan nan nan nan nan nan nan nan nan nan nan nan nan nan nan nan nan nan nan nan nan nan nan nan nan nan nan nan nan nan nan nan nan nan nan nan nan nan nan nan nan nan nan nan nan nan nan nan nan nan nan nan nan nan nan nan nan nan nan nan nan nan nan nan nan nan nan nan nan nan nan nan nan nan nan
nan nan nan nan nan nan nan nan nan nan nan nan nan nan nan nan nan nan nan nan nan nan nan nan nan nan nan nan nan nan nan nan nan nan nan nan nan nan nan nan nan nan nan nan nan nan nan nan nan nan nan nan nan nan nan nan nan nan nan nan nan nan nan nan nan nan nan nan nan nan nan nan nan nan nan nan nan nan nan nan nan nan nan nan nan
nan nan nan nan nan nan nan nan nan nan nan nan nan nan nan nan nan nan nan nan nan nan nan nan nan nan nan nan nan nan nan nan nan nan nan nan nan nan nan nan nan nan nan nan nan nan nan nan nan nan nan nan nan nan nan nan nan nan nan nan nan nan nan nan nan nan nan nan nan nan nan nan nan nan nan nan nan nan nan nan nan nan nan nan nan
nan nan nan nan nan nan nan nan nan nan nan nan nan nan nan nan nan nan nan nan nan nan nan nan nan nan nan nan nan nan nan nan nan nan nan nan nan nan nan nan nan nan nan nan nan nan nan nan nan nan nan nan nan nan nan nan nan nan nan nan nan nan nan nan nan nan nan nan nan nan nan nan nan nan nan nan nan nan nan nan nan nan nan nan nan
nan nan nan nan nan nan nan nan nan nan nan nan nan nan nan nan nan nan nan nan nan nan nan nan nan nan nan nan nan nan nan nan nan nan nan nan nan nan nan nan nan nan nan nan nan nan nan nan nan nan nan nan nan nan nan nan nan nan nan nan nan nan nan nan nan nan nan nan nan nan nan nan nan nan nan nan nan nan nan nan nan nan nan nan nan
nan nan nan nan nan nan nan nan nan nan nan nan nan nan nan nan nan nan nan nan nan nan nan nan nan nan nan nan nan nan nan nan nan nan nan nan nan nan nan nan nan nan nan nan nan nan nan nan nan nan nan nan nan nan nan nan nan nan nan nan nan nan nan nan nan nan nan nan nan nan nan nan nan nan nan nan nan nan nan nan nan nan nan nan nan
nan nan nan nan nan nan nan nan nan nan nan nan nan nan nan nan nan nan nan nan nan nan nan nan nan nan nan nan nan nan nan nan nan nan nan nan nan nan nan nan nan nan nan nan nan nan nan nan nan nan nan nan nan nan nan nan nan nan nan nan nan nan nan nan nan nan nan nan nan nan nan nan nan nan nan nan nan nan nan nan nan nan nan nan nan
nan nan nan nan nan nan nan nan nan nan nan nan nan nan nan nan nan nan nan nan nan nan nan nan nan nan nan nan nan nan nan nan nan nan nan nan nan nan nan nan nan nan nan nan nan nan nan nan nan nan nan nan nan nan nan nan nan nan nan nan nan nan nan nan nan nan nan nan nan nan nan nan nan nan nan nan nan nan nan nan nan nan nan nan nan
nan nan nan nan nan nan nan nan nan nan nan nan nan nan nan nan nan nan nan nan nan nan nan nan nan nan nan nan nan nan nan nan nan nan nan nan nan nan nan nan nan nan nan nan nan nan nan nan nan nan nan nan nan nan nan nan nan nan nan nan nan nan nan nan nan nan nan nan nan nan nan nan nan nan nan nan nan nan nan nan nan nan nan nan nan
nan nan nan nan nan nan nan nan nan nan nan nan nan nan nan nan nan nan nan nan nan nan nan nan nan nan nan nan nan nan nan nan nan nan nan nan nan nan nan nan nan nan nan nan nan nan nan nan nan nan nan nan nan nan nan nan nan nan nan nan nan nan nan nan nan nan nan nan nan nan nan nan nan nan nan nan nan nan nan nan nan nan nan nan nan
247 248 nan nan 250 nan nan nan nan nan nan nan nan nan nan nan nan nan nan nan nan nan nan nan nan nan nan nan nan nan nan nan nan nan nan nan nan nan nan nan nan nan nan nan nan nan nan nan nan nan nan nan nan nan nan nan nan nan nan nan nan nan nan nan nan nan nan nan nan nan nan nan nan nan nan nan nan nan nan nan nan nan nan nan nan
244 246 251 253 nan 249 251 nan nan nan nan nan nan nan nan nan nan nan nan nan nan nan nan nan nan nan nan nan nan nan nan nan nan nan nan nan nan nan nan nan nan nan nan nan nan nan nan nan nan nan nan nan nan nan nan nan nan nan nan nan nan nan nan nan nan nan nan nan nan nan nan nan nan nan nan nan nan nan nan nan nan nan nan nan nan
243 248 247 247 249 251 254 255 255 256 nan nan nan nan nan nan nan nan nan nan nan nan nan 302 302 303 nan 297 nan nan nan nan nan nan nan nan nan nan nan nan nan nan nan nan nan nan nan nan nan nan nan nan nan nan nan nan nan nan nan nan nan nan nan nan nan nan nan nan nan nan nan nan nan nan nan nan nan nan nan nan nan nan nan nan nan
241 239 240 242 245 251 253 254 257 258 260 264 267 269 nan nan nan nan nan nan nan nan nan 293 298 302 301 296 294 291 285 282 282 281 283 284 282 282 283 nan nan nan nan nan nan nan nan nan nan nan nan nan nan nan nan nan nan nan nan nan nan nan nan nan nan nan nan nan nan nan nan nan nan nan nan nan nan nan nan nan nan nan nan nan nan
243 244 244 248 249 249 254 258 262 261 263 271 271 269 271 272 276 275 nan nan nan nan nan 288 294 298 297 297 295 294 289 285 283 284 nan nan nan nan nan nan nan nan nan nan nan nan nan nan nan nan nan nan nan nan nan nan nan nan nan nan nan nan nan nan nan nan nan nan nan nan nan nan nan nan nan nan nan nan nan nan nan nan nan nan nan
nan nan nan nan nan nan nan 260 261 261 261 266 273 273 273 274 271 270 269 268 267 270 277 282 288 291 290 288 286 286 287 287 291 nan nan nan nan 289 nan nan nan nan nan nan nan nan nan nan nan nan nan nan nan nan nan nan nan nan nan nan nan nan nan nan nan nan nan nan nan nan nan nan nan nan nan nan nan nan nan nan nan nan nan nan nan
nan nan nan nan nan nan nan nan nan nan 261 261 266 269 269 273 274 271 269 265 263 263 266 271 277 284 290 296 290 284 nan 284 nan nan nan nan nan nan nan nan nan nan nan nan nan nan nan nan nan nan nan nan nan nan nan nan nan nan nan nan nan nan nan nan nan nan nan nan nan nan nan nan nan nan nan nan nan nan nan nan nan nan nan nan nan
nan nan nan nan nan nan nan nan nan nan nan 261 266 269 269 271 273 271 269 266 263 264 269 275 280 283 287 292 299 293 286 286 nan nan nan nan nan nan nan nan nan nan nan nan nan nan nan nan nan nan nan nan nan nan nan nan nan nan nan nan nan nan nan nan nan nan nan nan nan nan nan nan nan nan nan nan nan nan nan nan nan nan nan nan nan